[Iaude] MPEC O113: 2024 OO1 [a=2.18,e=0.54,i=7.7,H=24.5]
    mpec at cfa.harvard.edu 
    mpec at cfa.harvard.edu
       
    Wed Jul 31 07:12:01 EDT 2024
    
    
  
M.P.E.C. 2024-O113                                Issued 2024 July 31, 11:06 UT
     The Minor Planet Electronic Circulars contain information on unusual
         minor planets, routine data on comets and natural satellites,
         and occasional editorial announcements.  They are published
    on behalf of Division F of the International Astronomical Union by the
          Minor Planet Center, Smithsonian Astrophysical Observatory,
                          Cambridge, MA 02138, U.S.A.
			  
             Prepared using the Tamkin Foundation Computer Network
                              MPC at CFA.HARVARD.EDU
            URL https://www.minorplanetcenter.net/    ISSN 1523-6714
                                    2024 OO1                                    
Observations:
     K24O01O* C2024 07 29.17275219 33 02.110-69 01 03.86         19.31cVEO113W68
     K24O01O  C2024 07 29.17636119 33 15.754-68 59 32.57         19.41cVEO113W68
     K24O01O  C2024 07 29.18369919 33 42.674-68 56 32.96         19.24cVEO113W68
     K24O01O  C2024 07 29.21798419 35 47.374-68 42 24.77         19.30cVEO113W68
     K24O01O  C2024 07 29.38339619 45 26.72 -67 31 08.6                WEO113X09
     K24O01O  C2024 07 29.39195919 45 55.79 -67 27 22.5                WEO113X09
     K24O01O  C2024 07 29.40161719 46 29.15 -67 23 05.9                WEO113X09
     K24O01O KB2024 07 29.91447320 12 57.162-63 37 07.73         19.3 VZEO113Y05
     K24O01O KB2024 07 29.91977120 13 10.324-63 34 48.34         19.3 VZEO113Y05
     K24O01O KB2024 07 29.92499020 13 23.153-63 32 31.57         18.9 VZEO113Y05
     K24O01O  C2024 07 30.77488 20 42 17.45 -56 54 33.6          18.8 GVEO113M28
     K24O01O  C2024 07 30.77693 20 42 20.60 -56 53 38.1          18.7 GVEO113M28
     K24O01O  C2024 07 30.77897 20 42 23.77 -56 52 42.6          18.8 GVEO113M28
     K24O01O KC2024 07 30.80143 20 43 01.30 -56 42 40.5                VEO113M21
     K24O01O KC2024 07 30.81771 20 43 26.00 -56 35 14.0          18.6 GVEO113M21
     K24O01O KB2024 07 31.11010 20 50 06.970-54 17 29.15         18.3 GXEO113L87
     K24O01O KB2024 07 31.11624 20 50 15.034-54 14 27.85         19.3 GXEO113L87
     K24O01O KB2024 07 31.12240 20 50 23.201-54 11 29.11         19.3 GXEO113L87
     K24O01O KB2024 07 31.12873 20 50 31.550-54 08 24.86         18.4 GXEO113L87
     K24O01O KB2024 07 31.13486 20 50 39.682-54 05 26.74         18.4 GXEO113L87
     K24O01O KB2024 07 31.14100 20 50 47.834-54 02 28.68         19.3 GXEO113L87
Observer details:
L87 Moonbase South Observatory, Hakos.  Observer G. Duszanowicz.  0.28-m f/1.9
    reflector + CMO.
M21 Schiaparelli Southern Observatory, Hakos.  Observers A. Aletti, F.
    Bellini, L. Buzzi, G. Galli.  Measurer G. Galli.  0.36-m f/8.4 reflector +
    CCD.
M28 Lesedi Telescope-SAAO Observatory, Sutherland.  Observers N. Erasmus, S.
    Potter, C. van Gend, S. Chandra, H. Worters.  Measurers T. Ngwane, N.
    Erasmus.  1.0-m f/8 Reflector + CCD.
W68 ATLAS Chile, Rio Hurtado.  Observers L. Denneau, R. Siverd, J. Tonry, H.
    Weiland.  Measurers L. Denneau, N. Erasmus, A. Fitzsimmons, J. Robinson,
    R. Siverd, J. Tonry, H. Weiland.  0.5-m Reflector + CCD.
X09 Deep Random Survey, Rio Hurtado.  Observers A. Schnabel, D. Ruhela.
    Measurer S. Deen.  0.43-m reflector + CMOS.
Y05 SONEAR Wykrota-CEAMIG, Serra da Piedade.  Observers C. Jacques, A.
    Caetano, E. Pimentel.  Measurer C. Jacques.  0.45-m f/2.9 reflector + CMO.
Orbital elements:
2024 OO1                                                 Earth MOID = 0.0359 AU
Epoch 2024 Oct. 17.0 TT = JDT 2460600.5                 Veres                   
M  31.59016              (2000.0)            P               Q                  
n   0.30630174     Peri.  321.04097     +0.13695650     +0.98626011             
a   2.1795646      Node   316.60396     -0.87189091     +0.07575857             
e   0.5427560      Incl.    7.72741     -0.47015865     +0.14680476             
P   3.22           H   24.58          G   0.15           U   8                  
Residuals in seconds of arc
240729 W68 (1.8-  3.3-)   240729 Y05  0.1+  0.1+    240730 M21  0.3-  0.1-
240729 W68  0.1+  0.1-    240729 Y05  0.5+  0.4+    240731 L87  0.6+  2.4-
240729 W68  0.1-  0.1-    240729 Y05  0.4+  0.1-    240731 L87  0.3+  0.8+
240729 W68  0.3+  0.0     240730 M28  1.0+  1.1+    240731 L87  0.6+  0.7+
240729 X09  0.1-  1.4+    240730 M28  0.4+  0.3+    240731 L87  0.4+  1.0+
240729 X09  1.5-  0.2-    240730 M28  0.3+  0.2-    240731 L87  0.4+  0.8+
240729 X09  0.7+  0.9-    240730 M21  0.0   0.0     240731 L87  0.6+  0.4+
Ephemeris:
2024 OO1                 a,e,i = 2.18, 0.54, 8                   q = 0.9966
Date    TT    R. A. (2000) Decl.     Delta      r    Elong.  Phase     V
2024 07 01    10 41 28.0 -30 42 56   0.1624  0.9983    78.9    91.9    23.9
...
2024 07 16    11 03 42.6 -43 38 55   0.08591 1.0047    79.8    95.4    22.7
...
2024 07 24    12 15 53.3 -65 04 13   0.04913 1.0225    96.5    80.8    20.9
...
2024 07 30    20 15 57.5 -62 57 46   0.03704 1.0419   135.4    43.2    19.2
2024 07 31    20 47 46.0 -55 08 41   0.03784 1.0456   143.1    35.6    19.0
2024 08 01    21 07 46.5 -47 28 38   0.03949 1.0495   150.2    28.7    18.9
...
2024 08 07    21 51 34.9 -16 30 32   0.06170 1.0749   169.7     9.7    19.3
...
2024 08 15    22 05 26.3 -01 26 12   0.1051  1.1150   165.8    12.9    20.7
...
2024 08 30    22 12 11.5 +06 19 55   0.2017  1.2047   163.7    13.6    22.3
M. P. C. Staff               (C) Copyright 2024 MPC           M.P.E.C. 2024-O113
    
    
More information about the Iaude
mailing list